Flag for Canada Weather past 2 weeks in Bathurst, New Brunswick, Canada

Now
54 °F

Partly cloudy.


Feels Like: 53 °F
Forecast: 58 / 74 °F
Wind: 3 mph from Southwest

Location: Bathurst Airport

Current Time: Jul 5, 2015 at 7:05:35 AM

Latest Report: Jul 5, 2015 at 6:00 AM


Visibility: 15 mi

Pressure: 29.90 "Hg

Humidity: 94%

Dew point: 52 °F

Location of BathurstLocation

Historic Weather in Bathurst — Graph

°F

Bathurst temperature yesterday

Maximum temperature yesterday: 81 °F (at 2:00 PM)
Minimum temperature yesterday: 48 °F (at 5:00 AM)
Average temperature yesterday: 65 °F

Past Weeks' High & Low Weather Summary

 TemperatureHumidityPressure
High81 °F (Jul 4, 2:00 PM)100% (Jun 22, 12:00 AM)30.16 "Hg (Jun 22, 12:00 AM)
Low41 °F (Jun 27, 4:00 AM)32% (Jul 4, 2:00 PM)29.60 "Hg (Jun 24, 6:00 AM)
Average60 °F75%29.88 "Hg
* Reported Jun 20 6:00 AM — Jul 5 6:00 AM, Bathurst, Weather by CustomWeather, © 2015

Note: Actual official high and low records may vary slightly from our data, if they occured in-between our weather recording intervals... More about our weather records

Advertising

Bathurst weather history for previous 24 hours

 ConditionsComfort  
Time TempWeatherWind HumidityBarometerVisibility
6:00 AM
Sun, Jul 5
54 °FPartly cloudy.3 mph94%29.90 "Hg15 mi
5:00 AM55 °FPassing clouds.2 mph94%29.89 "Hg15 mi
4:00 AM57 °FPassing clouds.No wind88%29.89 "Hg15 mi
3:00 AM61 °FMostly cloudy.3 mph83%29.89 "Hg15 mi
2:00 AM61 °FOvercast.3 mph83%29.89 "Hg15 mi
1:00 AM63 °FOvercast.5 mph77%29.89 "Hg15 mi
12:00 AM63 °FOvercast.No wind83%29.89 "Hg15 mi
11:00 PM
Sat, Jul 4
64 °FOvercast.No wind78%29.90 "Hg15 mi
10:00 PM66 °FOvercast.No wind73%29.90 "Hg15 mi
9:00 PM68 °FMostly cloudy.2 mph69%29.89 "Hg15 mi
8:00 PM70 °FMore clouds than sun.No wind57%29.90 "Hg15 mi
7:00 PM72 °FMostly cloudy.2 mph61%29.90 "Hg15 mi
6:00 PM73 °FMostly cloudy.5 mph53%29.90 "Hg15 mi
5:00 PM77 °FMostly cloudy.9 mph47%29.90 "Hg15 mi
4:00 PM73 °FMostly cloudy.8 mph57%29.90 "Hg15 mi
3:00 PM79 °FOvercast.9 mph45%29.89 "Hg15 mi
2:00 PM81 °FMore clouds than sun.12 mph32%29.90 "Hg15 mi
1:00 PM79 °FOvercast.7 mph39%29.91 "Hg15 mi
12:00 PM77 °FOvercast.7 mph44%29.92 "Hg15 mi
11:00 AM73 °FOvercast.9 mph44%29.92 "Hg15 mi
10:00 AM70 °FOvercast.10 mph53%29.93 "Hg15 mi
9:00 AM66 °FOvercast.3 mph68%29.92 "Hg15 mi
8:00 AM59 °FOvercast.No wind72%29.90 "Hg15 mi
7:00 AM52 °FPartly sunny.No wind82%29.89 "Hg15 mi
Weather by CustomWeather, © 2015

See weather overviewHow to use our weather pages